Liberal, KS

3:47 AM CDT on July 25, 2017 (GMT -0500)
Liberal Municipal

Weather History for KLBL - September, 2013

Change the Weather History Date:

Thursday, September 26, 2013

  Actual Average Record
Temperature  
Mean Temperature 78 °F -  
Max Temperature 96 °F 83 °F 97 °F (1979)
Min Temperature 60 °F 51 °F 35 °F (2000)
Cooling Degree Days 13    
Growing Degree Days 28 (Base 50)    
Moisture  
Dew Point 49 °F    
Average Humidity 38    
Maximum Humidity 60    
Minimum Humidity 18    
Precipitation  
Precipitation 0.00 in - - ()
Sea Level Pressure  
Sea Level Pressure 29.72 in    
Wind  
Wind Speed 17 mph (SSE)    
Max Wind Speed 31 mph    
Max Gust Speed 40 mph    
Visibility 10 miles    
Events      
Averages and records for this station are not official NWS values.
T = Trace of Precipitation, MM = Missing Value Source: NWS Daily Summary

Daily Weather History Graph

Daily Weather History Graph

Search for Another Location

Airport or City:

Trip Planner

Search our weather history database for the weather conditions in past years. The results will help you decide how hot, cold, wet, or windy it might be!

Date:

Astronomy

Sep. 26, 2013 Rise Set
Actual Time 7:35 AM CDT 7:34 PM CDT
Civil Twilight 7:09 AM CDT 8:00 PM CDT
Nautical Twilight 6:39 AM CDT 8:30 PM CDT
Astronomical Twilight 6:08 AM CDT 9:00 PM CDT
Moon No Moon Rise 2:21 PM CDT (9/26)
Length of Visible Light 12h 50m
Length of Day
11h 58m
Waning Gibbous, 54% of the Moon is Illuminated
Sep 26
Waning Gibbous
Sep 26
Last Quarter
Oct 4
New
Oct 11
First Quarter
Oct 18
Full

Hourly Weather History & Observations

Time (CDT) Temp. Heat Index Dew Point Humidity Pressure Visibility Wind Dir Wind Speed Gust Speed Precip Events Conditions
12:15 AM 71.6 °F - 42.8 °F 35% 29.71 in 10.0 mi SSE 16.1 mph - N/A   Clear
12:35 AM 69.8 °F - 42.8 °F 38% 29.71 in 10.0 mi SSE 13.8 mph 19.6 mph N/A   Clear
12:55 AM 69.8 °F - 42.8 °F 38% 29.71 in 10.0 mi SSE 13.8 mph - N/A   Clear
1:15 AM 68.0 °F - 42.8 °F 40% 29.71 in 10.0 mi SE 10.4 mph - N/A   Clear
1:35 AM 66.2 °F - 42.8 °F 43% 29.71 in 10.0 mi South 12.7 mph - N/A   Clear
1:55 AM 66.2 °F - 42.8 °F 43% 29.70 in 10.0 mi SSE 11.5 mph - N/A   Clear
2:15 AM 66.2 °F - 42.8 °F 43% 29.70 in 10.0 mi SE 10.4 mph - N/A   Clear
2:35 AM 64.4 °F - 42.8 °F 45% 29.70 in 10.0 mi SSE 11.5 mph - N/A   Clear
2:55 AM 62.6 °F - 42.8 °F 48% 29.70 in 10.0 mi SSE 9.2 mph - N/A   Clear
3:15 AM 62.6 °F - 42.8 °F 48% 29.70 in 10.0 mi SSE 10.4 mph - N/A   Clear
3:35 AM 62.6 °F - 42.8 °F 48% 29.70 in 10.0 mi SE 6.9 mph - N/A   Clear
3:55 AM 60.8 °F - 42.8 °F 52% 29.70 in 10.0 mi SSE 9.2 mph - N/A   Clear
4:15 AM 62.6 °F - 44.6 °F 52% 29.69 in 10.0 mi SSE 10.4 mph - N/A   Clear
4:35 AM 62.6 °F - 44.6 °F 52% 29.69 in 10.0 mi SSE 11.5 mph - N/A   Clear
4:55 AM 64.4 °F - 44.6 °F 49% 29.69 in 10.0 mi SE 11.5 mph - N/A   Clear
5:15 AM 62.6 °F - 44.6 °F 52% 29.69 in 10.0 mi SSE 10.4 mph - N/A   Clear
5:35 AM 62.6 °F - 44.6 °F 52% 29.69 in 10.0 mi SE 10.4 mph - N/A   Clear
5:55 AM 60.8 °F - 44.6 °F 55% 29.70 in 10.0 mi SE 10.4 mph - N/A   Clear
6:15 AM 62.6 °F - 46.4 °F 55% 29.70 in 10.0 mi SE 11.5 mph - N/A   Clear
6:35 AM 62.6 °F - 46.4 °F 55% 29.71 in 10.0 mi ESE 10.4 mph - N/A   Clear
6:55 AM 60.8 °F - 44.6 °F 55% 29.71 in 10.0 mi SE 12.7 mph - N/A   Clear
7:15 AM 62.6 °F - 48.2 °F 59% 29.72 in 10.0 mi SSE 15.0 mph - N/A   Clear
7:35 AM 62.6 °F - 48.2 °F 59% 29.72 in 10.0 mi SE 13.8 mph - N/A   Clear
7:55 AM 62.6 °F - 48.2 °F 59% 29.73 in 10.0 mi SE 12.7 mph - N/A   Clear
8:15 AM 64.4 °F - 48.2 °F 56% 29.74 in 10.0 mi SE 12.7 mph - N/A   Clear
8:35 AM 66.2 °F - 51.8 °F 60% 29.73 in 10.0 mi SE 17.3 mph - N/A   Clear
8:55 AM 69.8 °F - 51.8 °F 53% 29.73 in 10.0 mi SE 19.6 mph - N/A   Clear
9:15 AM 71.6 °F - 51.8 °F 50% 29.74 in 10.0 mi SSE 21.9 mph 26.5 mph N/A   Clear
9:35 AM 73.4 °F - 51.8 °F 47% 29.75 in 10.0 mi SSE 20.7 mph 26.5 mph N/A   Clear
9:55 AM 75.2 °F - 51.8 °F 44% 29.75 in 10.0 mi South 20.7 mph - N/A   Clear
10:15 AM 77.0 °F - 53.6 °F 44% 29.76 in 10.0 mi South 20.7 mph 27.6 mph N/A   Clear
10:35 AM 78.8 °F - 51.8 °F 39% 29.76 in 10.0 mi South 24.2 mph - N/A   Clear
10:55 AM 80.6 °F 80.3 °F 53.6 °F 39% 29.76 in 10.0 mi SSE 21.9 mph 25.3 mph N/A   Clear
11:15 AM 82.4 °F 81.4 °F 53.6 °F 37% 29.76 in 10.0 mi South 20.7 mph - N/A   Clear
11:35 AM 84.2 °F 82.8 °F 53.6 °F 35% 29.76 in 10.0 mi South 23.0 mph 27.6 mph N/A   Clear
11:55 AM 84.2 °F 82.8 °F 53.6 °F 35% 29.75 in 10.0 mi South 23.0 mph 27.6 mph N/A   Clear
12:15 PM 87.8 °F 85.7 °F 53.6 °F 31% 29.75 in 10.0 mi South 21.9 mph 27.6 mph N/A   Clear
12:35 PM 87.8 °F 85.7 °F 53.6 °F 31% 29.75 in 10.0 mi South 19.6 mph - N/A   Clear
12:55 PM 89.6 °F 87.3 °F 53.6 °F 29% 29.74 in 10.0 mi SSW 23.0 mph 27.6 mph N/A   Clear
1:15 PM 91.4 °F 89.1 °F 53.6 °F 28% 29.74 in 10.0 mi South 24.2 mph 31.1 mph N/A   Clear
1:35 PM 91.4 °F 89.1 °F 53.6 °F 28% 29.73 in 10.0 mi South 23.0 mph 29.9 mph N/A   Clear
1:55 PM 93.2 °F - 51.8 °F 24% 29.73 in 10.0 mi South 23.0 mph 31.1 mph N/A   Clear
2:15 PM 93.2 °F - 51.8 °F 24% 29.72 in 9.0 mi South 31.1 mph 34.5 mph N/A   Clear
2:35 PM 95.0 °F - 51.8 °F 23% 29.71 in 10.0 mi SSW 26.5 mph 35.7 mph N/A   Clear
2:55 PM 96.8 °F - 48.2 °F 19% 29.70 in 10.0 mi South 31.1 mph 40.3 mph N/A   Clear
3:15 PM 96.8 °F - 50.0 °F 20% 29.71 in 10.0 mi South 27.6 mph 32.2 mph N/A   Clear
3:35 PM 96.8 °F - 48.2 °F 19% 29.70 in 10.0 mi South 29.9 mph 40.3 mph N/A   Clear
3:55 PM 96.8 °F - 48.2 °F 19% 29.70 in 10.0 mi SSW 24.2 mph 38.0 mph N/A   Clear
4:15 PM 96.8 °F - 48.2 °F 19% 29.70 in 10.0 mi South 26.5 mph 38.0 mph N/A   Clear
4:35 PM 96.8 °F - 46.4 °F 18% 29.70 in 10.0 mi SSW 28.8 mph 35.7 mph N/A   Clear
4:55 PM 96.8 °F - 46.4 °F 18% 29.70 in 10.0 mi SSW 24.2 mph 39.1 mph N/A   Clear
5:15 PM 96.8 °F - 46.4 °F 18% 29.70 in 10.0 mi SSW 27.6 mph 35.7 mph N/A   Clear
5:35 PM 96.8 °F - 46.4 °F 18% 29.70 in 10.0 mi South 23.0 mph 32.2 mph N/A   Clear
5:55 PM 93.2 °F - 51.8 °F 24% 29.71 in 10.0 mi South 24.2 mph 32.2 mph N/A   Clear
6:15 PM 91.4 °F 89.1 °F 53.6 °F 28% 29.70 in 10.0 mi SSE 29.9 mph 35.7 mph N/A   Clear
6:35 PM 89.6 °F 87.3 °F 53.6 °F 29% 29.71 in 10.0 mi SSE 25.3 mph 34.5 mph N/A   Clear
6:55 PM 89.6 °F 87.3 °F 53.6 °F 29% 29.70 in 10.0 mi SSE 29.9 mph 36.8 mph N/A   Clear
7:15 PM 87.8 °F 85.7 °F 53.6 °F 31% 29.71 in 10.0 mi SSE 25.3 mph 38.0 mph N/A   Clear
7:35 PM 86.0 °F 84.2 °F 53.6 °F 33% 29.72 in 10.0 mi SSE 25.3 mph 32.2 mph N/A   Clear
7:55 PM 84.2 °F 82.8 °F 53.6 °F 35% 29.72 in 10.0 mi SSE 25.3 mph 33.4 mph N/A   Clear
8:15 PM 84.2 °F 82.8 °F 53.6 °F 35% 29.72 in 10.0 mi SSE 18.4 mph 27.6 mph N/A   Clear
8:35 PM 82.4 °F 81.4 °F 53.6 °F 37% 29.72 in 10.0 mi SSE 24.2 mph 32.2 mph N/A   Clear
8:55 PM 82.4 °F 81.4 °F 53.6 °F 37% 29.73 in 10.0 mi SSE 20.7 mph 29.9 mph N/A   Clear
9:15 PM 80.6 °F 80.3 °F 53.6 °F 39% 29.74 in 10.0 mi SSE 23.0 mph 28.8 mph N/A   Clear
9:35 PM 80.6 °F 80.3 °F 53.6 °F 39% 29.74 in 10.0 mi SSE 21.9 mph 31.1 mph N/A   Clear
9:55 PM 80.6 °F 80.3 °F 53.6 °F 39% 29.75 in 10.0 mi SE 25.3 mph 35.7 mph N/A   Clear
10:15 PM 80.6 °F - 51.8 °F 37% 29.75 in 10.0 mi SE 25.3 mph 36.8 mph N/A   Clear
10:35 PM 80.6 °F - 51.8 °F 37% 29.76 in 10.0 mi SE 25.3 mph 32.2 mph N/A   Clear
10:55 PM 78.8 °F - 51.8 °F 39% 29.77 in 10.0 mi SE 25.3 mph 29.9 mph N/A   Clear
11:15 PM 78.8 °F - 51.8 °F 39% 29.78 in 10.0 mi SE 24.2 mph 31.1 mph N/A   Clear
11:35 PM 78.8 °F - 51.8 °F 39% 29.78 in 10.0 mi SE 26.5 mph 31.1 mph N/A   Clear
11:55 PM 78.8 °F - 51.8 °F 39% 29.79 in 10.0 mi SE 26.5 mph 31.1 mph N/A   Clear